EW0704 Weather Reports


Display with metric or nautical units.
time (UTC)temp
F
wind
direction
speed
MPH
gust
MPH
rain 1hr
in
rain 24hr
in
rain mn
in
humidity
%
barometer
mb
20210922160151 79 117 4.0 4.0 0.00 0.04 0.04 86 1019.9
20210922155149 79 252 0.0 2.0 0.00 0.04 0.04 86 1020.1
20210922154145 78 241 0.0 3.0 0.00 0.04 0.04 88 1020.2
20210922153149 78 37 0.0 1.0 0.00 0.04 0.04 90 1020.3
20210922152144 76 212 0.0 1.0 0.00 0.04 0.04 93 1020.4
20210922151137 76 302 0.0 4.0 0.00 0.04 0.04 92 1020.5
20210922150156 76 82 0.0 4.0 0.00 0.04 0.04 92 1020.7
20210922145126 76 177 4.0 4.0 0.00 0.04 0.04 93 1020.8
20210922144116 76 147 4.0 2.0 0.00 0.04 0.04 94 1020.9
20210922143119 76 136 0.0 3.0 0.00 0.04 0.04 95 1021.0
20210922142132 75 109 0.0 1.0 0.00 0.04 0.04 96 1021.1
20210922141134 74 163 0.0 1.0 0.00 0.04 0.04 98 1021.1
20210922140120 73 111 4.0 5.0 0.00 0.04 0.04 98 1021.1
20210922135055 74 282 0.0 0.0 0.00 0.04 0.04 97 1021.1
20210922134105 74 321 0.0 3.0 0.00 0.04 0.04 98 1021.1
20210922133043 73 283 0.0 2.0 0.00 0.04 0.04 100 1021.1
20210922132055 73 128 0.0 0.0 0.00 0.04 0.04 99 1021.1
20210922131047 73 126 0.0 1.0 0.00 0.03 0.03 99 1021.1
20210922130050 72 235 0.0 0.0 0.00 0.03 0.03 99 1021.2
20210922125040 72 311 0.0 0.0 0.00 0.03 0.03 100 1021.2
20210922124059 72 248 0.0 2.0 0.00 0.03 0.03 100 1021.2
20210922123111 72 146 4.0 3.0 0.00 0.03 0.03 100 1021.3
20210922122050 71 287 0.0 1.0 0.00 0.03 0.03 100 1021.4
20210922121049 71 144 0.0 3.0 0.00 0.03 0.03 100 1021.5
20210922120108 71 121 0.0 2.0 0.00 0.03 0.03 100 1021.6
20210922115132 71 316 0.0 0.0 0.00 0.03 0.03 100 1021.6
20210922114141 71 121 0.0 2.0 0.00 0.03 0.03 100 1021.5
20210922113147 71 206 4.0 4.0 0.00 0.02 0.02 100 1021.5
20210922112200 71 158 0.0 0.0 0.00 0.02 0.02 100 1021.6
20210922111131 71 104 4.0 1.0 0.00 0.02 0.02 100 1021.6
20210922110127 71 337 4.0 5.0 0.00 0.01 0.01 100 1021.6
20210922105111 70 4 0.0 5.0 0.00 0.01 0.01 100 1021.6
20210922104041 70 133 4.0 3.0 0.00 0.01 0.01 100 1021.7
20210922103101 70 0 0.0 1.0 0.00 0.01 0.01 100 1021.7
20210922102041 70 46 4.0 4.0 0.00 0.01 0.01 100 1021.8
20210922101049 70 15 0.0 2.0 0.00 0.01 0.01 100 1021.7
20210922100024 70 63 0.0 2.0 0.00 0.01 0.01 100 1021.7
20210922094956 70 212 0.0 0.0 0.00 0.01 0.01 100 1021.8
20210922093957 70 20 0.0 0.0 0.00 0.01 0.01 100 1021.8
20210922092951 70 42 4.0 2.0 0.00 0.01 0.01 100 1022.0
20210922091921 70 107 0.0 0.0 0.00 0.01 0.01 100 1021.9
20210922090852 70 45 0.0 0.0 0.00 0.01 0.01 100 1022.0
20210922085915 70 52 0.0 2.0 0.00 0.01 0.01 100 1022.1
20210922084928 70 50 0.0 2.0 0.00 0.01 0.01 100 1022.3
20210922083854 70 216 0.0 0.0 0.00 0.01 0.01 100 1022.4
20210922082901 70 77 0.0 0.0 0.00 0.01 0.01 100 1022.3
20210922081844 70 113 0.0 0.0 0.00 0.01 0.01 100 1022.5
20210922080829 69 113 0.0 0.0 0.00 0.01 0.01 100 1022.6
20210922075755 69 6 0.0 1.0 0.00 0.01 0.01 100 1022.7
20210922074801 69 2 0.0 0.0 0.00 0.01 0.01 100 1022.7
20210922073737 69 46 0.0 0.0 0.00 0.01 0.01 100 1022.8
20210922072746 69 47 0.0 0.0 0.00 0.01 0.01 100 1022.8
20210922071752 68 38 0.0 0.0 0.00 0.01 0.01 100 1023.0
20210922070746 68 37 0.0 0.0 0.00 0.01 0.01 100 1023.1
20210922065712 68 37 0.0 0.0 0.00 0.01 0.01 100 1023.0
20210922064653 68 38 4.0 4.0 0.00 0.01 0.01 100 1023.1
20210922063705 68 41 4.0 4.0 0.00 0.01 0.01 100 1023.2
20210922062717 68 23 0.0 0.0 0.00 0.01 0.01 100 1023.4
20210922061726 68 22 0.0 0.0 0.00 0.01 0.01 100 1023.5
20210922060701 68 27 0.0 4.0 0.00 0.01 0.01 100 1023.6
20210922055719 68 32 0.0 0.0 0.00 0.01 0.01 100 1023.8
20210922054737 67 67 0.0 2.0 0.00 0.01 0.01 100 1023.8
20210922053746 67 21 0.0 0.0 0.00 0.01 0.01 100 1023.9
20210922052753 67 21 0.0 2.0 0.00 0.01 0.01 100 1024.0
20210922051810 67 40 0.0 0.0 0.00 0.01 0.01 100 1024.1
20210922050819 66 40 0.0 0.0 0.00 0.00 0.00 100 1024.2
20210922045759 66 40 0.0 0.0 0.00 0.00 0.00 99 1024.3
20210922044739 66 37 0.0 0.0 0.00 0.00 0.00 99 1024.4
20210922043742 66 23 4.0 2.0 0.00 0.00 0.00 99 1024.3
20210922042718 65 303 0.0 0.0 0.00 0.00 0.00 98 1024.4
20210922041653 65 4 0.0 1.0 0.00 0.00 0.00 98 1024.6
20210922040628 65 1 0.0 0.0 0.00 0.00 0.00 97 1024.7
20210922035651 65 1 0.0 0.0 0.00 0.00 0.00 97 1024.9
20210922034652 65 1 0.0 0.0 0.00 0.00 0.00 97 1025.0
20210922033654 65 1 0.0 0.0 0.00 0.00 0.00 97 1025.0
20210922032717 65 25 0.0 0.0 0.00 0.00 0.00 97 1025.0
20210922031706 65 25 0.0 0.0 0.00 0.00 0.00 96 1025.1
20210922030652 64 25 0.0 0.0 0.00 0.00 0.00 96 1025.0
20210922025643 64 25 0.0 0.0 0.00 0.00 0.00 96 1025.1
20210922024620 64 25 0.0 0.0 0.00 0.00 0.00 96 1025.2
20210922023629 64 15 0.0 1.0 0.00 0.00 0.00 96 1025.3
20210922022646 64 13 0.0 0.0 0.00 0.00 0.00 96 1025.4
20210922021632 64 13 0.0 0.0 0.00 0.00 0.00 96 1025.4
20210922020604 64 13 0.0 0.0 0.00 0.00 0.00 95 1025.6
20210922015618 64 13 0.0 0.0 0.00 0.00 0.00 95 1025.7
20210922014620 64 13 0.0 0.0 0.00 0.00 0.00 95 1025.8
20210922013642 64 14 0.0 0.0 0.00 0.00 0.00 94 1025.6
20210922012634 64 40 0.0 0.0 0.00 0.00 0.00 94 1025.7
20210922011622 65 40 0.0 0.0 0.00 0.00 0.00 93 1025.8
20210922010605 65 34 0.0 2.0 0.00 0.00 0.00 93 1025.9
20210922005616 65 34 0.0 0.0 0.00 0.00 0.00 93 1025.9
20210922004615 65 35 0.0 1.0 0.00 0.00 0.00 93 1026.0
20210922003631 65 30 0.0 0.0 0.00 0.00 0.00 92 1026.0
20210922002646 66 32 0.0 0.0 0.00 0.00 0.00 93 1025.9
20210922001707 66 19 0.0 0.0 0.00 0.00 0.00 92 1025.9
20210922000702 66 26 0.0 0.0 0.00 0.00 0.00 92 1026.0
20210921235631 67 26 0.0 0.0 0.00 0.00 0.00 92 1026.1
20210921234619 67 26 0.0 0.0 0.00 0.00 0.00 91 1026.1
20210921233642 67 26 0.0 0.0 0.00 0.00 0.00 91 1026.0
20210921232630 68 25 0.0 0.0 0.00 0.00 0.00 90 1026.1
20210921231642 68 25 0.0 0.0 0.00 0.00 0.00 90 1026.1
20210921230645 68 25 0.0 0.0 0.00 0.00 0.00 89 1026.0
20210921225648 69 49 0.0 0.0 0.00 0.00 0.00 88 1026.2
20210921224655 69 49 0.0 0.0 0.00 0.00 0.00 88 1026.2
20210921223653 69 49 0.0 0.0 0.00 0.00 0.00 88 1026.2
20210921222655 69 38 0.0 1.0 0.00 0.00 0.00 88 1026.2
20210921221650 70 30 0.0 1.0 0.00 0.00 0.00 86 1026.3
20210921220714 70 22 0.0 2.0 0.00 0.00 0.00 86 1026.3
20210921215735 71 48 0.0 0.0 0.00 0.00 0.00 84 1026.3
20210921214720 71 48 4.0 4.0 0.00 0.00 0.00 83 1026.3
20210921213656 72 82 0.0 0.0 0.00 0.00 0.00 81 1026.4
20210921212651 73 185 0.0 0.0 0.00 0.00 0.00 81 1026.4
20210921211657 73 197 0.0 0.0 0.00 0.00 0.00 79 1026.4
20210921210701 73 121 0.0 6.0 0.00 0.00 0.00 77 1026.5
20210921205629 73 13 4.0 2.0 0.00 0.00 0.00 78 1026.5
20210921204653 74 12 4.0 0.0 0.00 0.00 0.00 77 1026.5
20210921203651 75 128 4.0 6.0 0.00 0.00 0.00 77 1026.6
20210921202639 75 206 4.0 1.0 0.00 0.00 0.00 75 1026.6
20210921201653 75 52 4.0 3.0 0.00 0.00 0.00 78 1026.6
20210921200620 76 31 4.0 5.0 0.00 0.00 0.00 76 1026.6
20210921195635 77 76 4.0 5.0 0.00 0.00 0.00 74 1026.6
20210921194605 78 24 8.0 9.0 0.00 0.00 0.00 73 1026.7
20210921193626 77 36 8.0 9.0 0.00 0.00 0.00 74 1026.8
20210921192631 76 223 4.0 5.0 0.00 0.00 0.00 73 1026.8
20210921191628 75 62 4.0 1.0 0.00 0.00 0.00 78 1027.0
20210921190622 77 148 4.0 3.0 0.00 0.00 0.00 72 1027.1
20210921185557 75 192 4.0 6.0 0.00 0.00 0.00 75 1027.1
20210921184620 77 263 4.0 6.0 0.00 0.00 0.00 76 1027.2
20210921183608 75 204 4.0 0.0 0.00 0.00 0.00 76 1027.2
20210921182629 76 115 4.0 4.0 0.00 0.00 0.00 74 1027.3
20210921181651 75 126 4.0 2.0 0.00 0.00 0.00 76 1027.4
20210921180630 73 88 0.0 0.0 0.00 0.00 0.00 79 1027.5
20210921175629 74 90 0.0 1.0 0.00 0.00 0.00 79 1027.6
20210921174633 74 134 4.0 2.0 0.00 0.00 0.00 78 1027.6
20210921173656 73 46 0.0 2.0 0.00 0.00 0.00 79 1027.7
20210921172654 73 246 0.0 0.0 0.00 0.00 0.00 82 1027.9
20210921171655 72 354 4.0 3.0 0.00 0.00 0.00 78 1028.2
20210921170701 73 126 4.0 3.0 0.00 0.00 0.00 76 1028.2
20210921165715 74 260 4.0 2.0 0.00 0.00 0.00 75 1028.2
20210921164715 74 111 4.0 0.0 0.00 0.00 0.00 75 1028.3
20210921163713 74 296 4.0 6.0 0.00 0.00 0.00 72 1028.4
20210921162653 74 34 8.0 6.0 0.00 0.00 0.00 73 1028.4
20210921161635 72 232 4.0 2.0 0.00 0.00 0.00 80 1028.6